1509490800.96,50229,7.25,73256.8,-10.37,-10.97,-10.93,0,*6D
1509490802.18,50230,7.25,73260.3,-10.35,-10.89,-10.93,0,*68
1509490803.42,50231,7.25,73258.8,-10.37,-10.93,-10.93,0,*60
1509490804.64,50232,7.25,73256.0,-10.35,-10.93,-10.89,0,*6A
1509490805.85,50233,7.25,73260.8,-10.35,-10.89,-10.89,0,*60
1509490807.1,50234,7.25,73266.8,-10.37,-10.93,-10.97,0,*61
1509490808.35,50235,7.25,73262.0,-10.37,-10.97,-10.93,0,*60
1509490809.57,50236,7.25,73260.0,-10.35,-10.89,-10.89,0,*65
1509490810.78,50237,7.25,73254.3,-10.35,-10.89,-10.93,0,*6F
1509490812.03,50238,7.25,73258.0,-10.37,-10.97,-10.93,0,*6D
1509490813.28,50239,7.25,73254.3,-10.37,-10.93,-10.93,0,*68
1509490814.53,50240,7.25,73240.3,-10.37,-10.93,-10.93,0,*66
1509490815.74,50241,7.25,73248.0,-10.35,-10.89,-10.89,0,*65
1509490816.95,50242,7.25,73246.3,-10.35,-10.89,-10.89,0,*66
1509490818.17,50243,7.25,73248.3,-10.35,-10.93,-10.93,0,*67
1509490819.39,50244,7.25,73250.0,-10.35,-10.89,-10.93,0,*6B
1509490820.64,50245,7.25,73252.3,-10.37,-10.97,-10.93,0,*67
1509490821.89,50246,7.25,73250.5,-10.37,-10.93,-10.93,0,*60
1509490823.13,50247,7.25,73226.8,-10.37,-10.97,-10.89,0,*6E
1509490824.35,50248,7.25,73212.8,-10.35,-10.89,-10.89,0,*6C
1509490825.6,50249,7.25,73238.8,-10.37,-10.97,-10.97,0,*6F
1509490826.85,50250,7.25,73236.5,-10.37,-10.93,-10.93,0,*67
1509490828.1,50251,7.25,73246.8,-10.37,-10.97,-10.97,0,*66
1509490829.32,50252,7.25,73242.0,-10.35,-10.93,-10.89,0,*6C
1509490830.57,50253,7.25,73244.8,-10.37,-10.97,-10.93,0,*60
1509490831.81,50254,7.25,73240.0,-10.37,-10.93,-10.93,0,*63
1509490833.06,50255,7.25,73236.5,-10.37,-10.93,-10.97,0,*66
1509490834.28,50256,7.25,73236.8,-10.35,-10.89,-10.89,0,*63
1509490835.53,50257,7.25,73232.5,-10.37,-10.93,-10.97,0,*64
1509490836.77,50258,7.25,73240.5,-10.37,-10.97,-10.85,0,*6C
1509490837.99,50259,7.25,73240.5,-10.35,-10.93,-10.89,0,*67
1509490839.23,50260,7.25,73242.0,-10.37,-10.85,-10.97,0,*67
1509490840.45,50261,7.25,73250.8,-10.35,-10.89,-10.89,0,*67
1509490841.7,50262,7.25,73246.3,-10.37,-10.97,-10.97,0,*66
1509490842.95,50263,7.25,73250.8,-10.37,-10.93,-10.93,0,*67
1509490844.16,50264,7.25,73250.0,-10.35,-10.89,-10.89,0,*62
1509490845.41,50265,7.25,73246.3,-10.37,-10.93,-10.93,0,*61
1509490846.65,50266,7.25,73250.8,-10.35,-10.89,-10.79,0,*6F
1509490847.9,50267,7.25,73246.0,-10.37,-10.93,-10.93,0,*63
1509490849.14,50268,7.25,73244.8,-10.37,-10.93,-10.93,0,*6C
1509490850.36,50269,7.25,73246.5,-10.35,-10.89,-10.89,0,*6F
1509490851.57,50270,7.25,73250.8,-10.35,-10.89,-10.89,0,*67
1509490852.82,50271,7.25,73246.3,-10.37,-10.93,-10.93,0,*64
1509490854.07,50272,7.25,73250.0,-10.37,-10.93,-10.97,0,*63
1509490855.29,50273,7.25,73252.0,-10.35,-10.93,-10.93,0,*64
1509490856.53,50274,7.25,73252.0,-10.37,-10.93,-10.93,0,*61
1509490857.75,50275,7.25,73252.8,-10.35,-10.89,-10.89,0,*62
1509490858.97,50276,7.25,73254.3,-10.35,-10.93,-10.93,0,*61
1509490860.22,50277,7.25,73252.3,-10.37,-10.97,-10.93,0,*66
1509490861.47,50278,7.25,73252.3,-10.37,-10.97,-10.93,0,*69
1509490862.71,50279,7.25,73252.5,-10.37,-10.93,-10.93,0,*6C
1509490863.96,50280,7.25,73254.0,-10.37,-10.93,-10.93,0,*6A
1509490865.18,50281,7.25,73246.3,-10.35,-10.93,-10.89,0,*62
1509490866.42,50282,7.25,73244.3,-10.37,-10.93,-10.85,0,*6F
1509490867.63,50283,7.25,73246.5,-10.35,-10.93,-10.89,0,*60
1509490868.85,50284,7.25,73246.0,-10.35,-10.93,-10.89,0,*67
1509490870.1,50285,7.25,73252.0,-10.37,-10.97,-10.93,0,*6B
1509490871.32,50286,7.25,73250.8,-10.35,-10.93,-10.89,0,*65
1509490872.53,50287,7.25,73248.0,-10.35,-10.89,-10.89,0,*6F
1509490873.75,50288,7.25,73240.8,-10.35,-10.89,-10.89,0,*60
1509490874.97,50289,7.25,73248.5,-10.35,-10.93,-10.89,0,*6A
1509490876.18,50290,7.25,73256.3,-10.35,-10.89,-10.89,0,*69
1509490877.4,50291,7.25,73254.0,-10.35,-10.89,-10.89,0,*68
1509490878.64,50292,7.25,73248.8,-10.35,-10.89,-10.79,0,*64
1509490879.88,50293,7.25,73240.8,-10.37,-10.93,-10.93,0,*68
1509490881.1,50294,7.25,73244.0,-10.35,-10.89,-10.89,0,*6D
1509490882.31,50295,7.25,73240.0,-10.35,-10.89,-10.89,0,*6C
1509490883.52,50296,7.25,73248.5,-10.35,-10.89,-10.85,0,*63
1509490884.74,50297,7.25,73250.8,-10.35,-10.93,-10.93,0,*6E
1509490885.98,50298,7.25,73250.8,-10.37,-10.85,-10.93,0,*64
1509490887.2,50299,7.25,73254.8,-10.35,-10.93,-10.89,0,*6B
1509490888.42,50300,7.25,73256.3,-10.35,-10.89,-10.89,0,*61
1509490889.66,50301,7.25,73258.0,-10.37,-10.93,-10.93,0,*62
1509490890.91,50302,7.25,73260.5,-10.37,-10.93,-10.93,0,*61
1509490892.13,50303,7.25,73256.8,-10.35,-10.93,-10.89,0,*69
1509490893.34,50304,7.25,73262.0,-10.35,-10.89,-10.89,0,*65
1509490894.58,50305,7.25,73260.3,-10.35,-10.89,-10.79,0,*6B
1509490895.82,50306,7.25,73254.5,-10.35,-10.89,-10.79,0,*68
1509490897.09,50307,7.25,73258.0,-10.35,-10.79,-10.79,0,*66
1509490898.33,50308,7.25,73254.0,-10.35,-10.89,-10.79,0,*66
1509490899.6,50309,7.25,73250.8,-10.35,-10.79,-10.79,0,*68
1509490900.85,50310,7.25,73254.0,-10.37,-10.93,-10.93,0,*62
1509490902.06,50311,7.25,73250.5,-10.35,-10.89,-10.89,0,*61
1509490903.3,50312,7.25,73262.5,-10.37,-10.93,-10.85,0,*67
1509490904.54,50313,7.25,73258.0,-10.37,-10.93,-10.85,0,*66
1509490905.78,50314,7.25,73262.0,-10.35,-10.89,-10.79,0,*6B
1509490907.0,50315,7.25,73260.3,-10.35,-10.89,-10.89,0,*65
1509490908.24,50316,7.25,73258.3,-10.35,-10.79,-10.89,0,*69
1509490909.45,50317,7.25,73254.3,-10.35,-10.89,-10.89,0,*67
1509490910.67,50318,7.25,73252.8,-10.35,-10.85,-10.93,0,*6F
1509490911.88,50319,7.25,73256.8,-10.35,-10.89,-10.93,0,*62
1509490913.13,50320,7.25,73254.8,-10.37,-10.85,-10.89,0,*6D
1509490914.37,50321,7.25,73246.0,-10.35,-10.79,-10.89,0,*6D
1509490915.61,50322,7.25,73252.0,-10.35,-10.79,-10.89,0,*6E
1509490916.86,50323,7.25,73248.8,-10.37,-10.97,-10.93,0,*66
1509490918.11,50324,7.25,73244.0,-10.37,-10.97,-10.93,0,*61
1509490919.33,50325,7.25,73246.8,-10.35,-10.93,-10.93,0,*66
1509490920.57,50326,7.25,73246.3,-10.37,-10.93,-10.93,0,*67
1509490921.79,50327,7.25,73246.3,-10.35,-10.89,-10.89,0,*64
1509490923.0,50328,7.25,73252.3,-10.35,-10.89,-10.89,0,*6B
1509490924.25,50329,7.25,73256.3,-10.37,-10.93,-10.93,0,*68
1509490925.49,50330,7.25,73262.5,-10.35,-10.89,-10.79,0,*6D
1509490926.76,50331,7.25,73258.5,-10.35,-10.79,-10.79,0,*63
1509490928.0,50332,7.25,73260.8,-10.37,-10.85,-10.93,0,*65
1509490929.23,50333,7.25,73248.8,-10.37,-10.85,-10.85,0,*63
1509490930.47,50334,7.25,73238.8,-10.37,-10.85,-10.85,0,*64
1509490931.74,50335,7.25,73244.0,-10.35,-10.79,-10.79,0,*67
1509490932.95,50336,7.25,73250.3,-10.35,-10.89,-10.89,0,*64
1509490934.2,50337,7.25,73244.8,-10.37,-10.93,-10.93,0,*67
1509490935.41,50338,7.25,73246.8,-10.35,-10.85,-10.93,0,*6D
1509490936.62,50339,7.25,73236.5,-10.35,-10.93,-10.85,0,*6C
1509490937.87,50340,7.25,73240.0,-10.35,-10.79,-10.89,0,*6A
1509490939.11,50341,7.25,73246.8,-10.35,-10.79,-10.89,0,*6B
1509490940.35,50342,7.25,73236.0,-10.35,-10.89,-10.79,0,*68
1509490941.59,50343,7.25,73238.0,-10.35,-10.89,-10.79,0,*69
1509490942.83,50344,7.25,73236.3,-10.35,-10.89,-10.79,0,*6E
1509490944.07,50345,7.25,73236.5,-10.35,-10.89,-10.79,0,*6F
1509490945.31,50346,7.25,73234.0,-10.37,-10.93,-10.85,0,*66
1509490946.58,50347,7.25,73232.3,-10.33,-10.89,-10.79,0,*6B
1509490947.82,50348,7.25,73236.3,-10.33,-10.89,-10.89,0,*6B
1509490949.06,50349,7.25,73244.0,-10.35,-10.89,-10.79,0,*63
1509490950.3,50350,7.25,73250.8,-10.35,-10.89,-10.79,0,*6B
1509490951.51,50351,7.25,73258.0,-10.35,-10.89,-10.89,0,*65
1509490952.73,50352,7.25,73258.5,-10.35,-10.89,-10.89,0,*66
1509490953.95,50353,7.25,73256.0,-10.35,-10.89,-10.89,0,*67
1509490955.16,50354,7.25,73258.3,-10.35,-10.89,-10.89,0,*60
1509490956.4,50355,7.25,73254.5,-10.35,-10.79,-10.89,0,*6E
1509490957.64,50356,7.25,73250.5,-10.37,-10.85,-10.93,0,*67
1509490958.91,50357,7.25,73254.5,-10.35,-10.79,-10.79,0,*63
1509490960.18,50358,7.25,73248.3,-10.35,-10.79,-10.79,0,*6C
1509490961.42,50359,7.25,73246.3,-10.35,-10.79,-10.89,0,*62
1509490962.66,50360,7.25,73240.5,-10.35,-10.79,-10.89,0,*68
1509490963.93,50361,7.25,73242.8,-10.35,-10.79,-10.79,0,*66
1509490965.17,50362,7.25,73246.8,-10.35,-10.93,-10.79,0,*61
1509490966.42,50363,7.25,73246.5,-10.35,-10.89,-10.79,0,*6B
1509490967.66,50364,7.25,73244.0,-10.35,-10.79,-10.89,0,*6C
1509490968.87,50365,7.25,73250.0,-10.35,-10.89,-10.89,0,*62
1509490970.11,50366,7.25,73242.8,-10.35,-10.89,-10.79,0,*6E
1509490971.4,50367,7.25,73248.8,-10.33,-10.79,-10.79,0,*66
1509490972.7,50368,7.25,73242.8,-10.33,-10.79,-10.75,0,*65
1509490973.99,50369,7.25,73244.8,-10.33,-10.79,-10.75,0,*64
1509490975.26,50370,7.25,73238.3,-10.33,-10.89,-10.75,0,*63
1509490976.5,50371,7.25,73244.8,-10.35,-10.89,-10.79,0,*68
1509490977.74,50372,7.25,73250.5,-10.35,-10.89,-10.79,0,*6B
1509490978.98,50373,7.25,73244.3,-10.35,-10.89,-10.79,0,*6A
1509490980.25,50374,7.25,73240.5,-10.35,-10.79,-10.79,0,*62
1509490981.49,50375,7.25,73246.0,-10.35,-10.79,-10.89,0,*6C
1509490982.76,50376,7.25,73248.8,-10.33,-10.79,-10.93,0,*62
1509490984.05,50377,7.25,73252.3,-10.33,-10.79,-10.79,0,*67
1509490985.34,50378,7.25,73248.0,-10.33,-10.79,-10.79,0,*68
1509490986.61,50379,7.25,73246.3,-10.35,-10.79,-10.79,0,*6F
1509490987.9,50380,7.25,73246.3,-10.33,-10.75,-10.79,0,*63
1509490989.19,50381,7.25,73248.8,-10.33,-10.79,-10.79,0,*6E
1509490990.46,50382,7.25,73254.8,-10.35,-10.79,-10.79,0,*6B
1509490991.73,50383,7.25,73248.0,-10.35,-10.79,-10.79,0,*6A
1509490992.97,50384,7.25,73254.3,-10.37,-10.85,-10.85,0,*6F
1509490994.23,50385,7.25,73250.0,-10.33,-10.79,-10.89,0,*65
1509490995.5,50386,7.25,73252.5,-10.33,-10.79,-10.89,0,*66
1509490996.76,50387,7.25,73248.3,-10.35,-10.79,-10.79,0,*6E
1509490998.03,50388,7.25,73252.0,-10.31,-10.75,-10.75,0,*65
1509490999.3,50389,7.25,73244.8,-10.33,-10.79,-10.89,0,*69
1509491000.56,50390,7.25,73242.0,-10.33,-10.89,-10.79,0,*61
1509491001.83,50391,7.25,73240.5,-10.33,-10.79,-10.89,0,*60
1509491003.07,50392,7.25,73250.0,-10.35,-10.89,-10.79,0,*65
1509491004.34,50393,7.25,73254.3,-10.35,-10.75,-10.79,0,*67
1509491005.6,50394,7.25,73242.8,-10.33,-10.79,-10.89,0,*65
1509491006.87,50395,7.25,73238.3,-10.33,-10.79,-10.89,0,*64
1509491008.16,50396,7.25,73240.5,-10.33,-10.79,-10.79,0,*68
1509491009.45,50397,7.25,73238.8,-10.33,-10.79,-10.79,0,*69
1509491010.72,50398,7.25,73232.5,-10.33,-10.89,-10.79,0,*69
1509491012.01,50399,7.25,73232.3,-10.33,-10.79,-10.79,0,*67
1509491013.28,50400,7.25,73242.8,-10.33,-10.89,-10.79,0,*6F
1509491014.57,50401,7.25,73246.0,-10.33,-10.79,-10.79,0,*61
1509491015.83,50402,7.25,73250.0,-10.33,-10.89,-10.79,0,*6D
1509491017.13,50403,7.25,73242.5,-10.33,-10.79,-10.79,0,*63
1509491018.37,50404,7.25,73224.8,-10.31,-10.85,-10.75,0,*69
1509491019.63,50405,7.25,73222.3,-10.33,-10.89,-10.79,0,*6A
1509491020.9,50406,7.25,73240.8,-10.33,-10.89,-10.79,0,*69
1509491022.19,50407,7.25,73236.3,-10.33,-10.79,-10.79,0,*67
1509491023.48,50408,7.25,73236.3,-10.33,-10.79,-10.79,0,*68
1509491024.77,50409,7.25,73230.8,-10.33,-10.79,-10.79,0,*69
1509491026.07,50410,7.25,73230.5,-10.33,-10.79,-10.75,0,*6D
1509491027.31,50411,7.25,73236.3,-10.33,-10.89,-10.89,0,*60
1509491028.57,50412,7.25,73226.0,-10.33,-10.89,-10.79,0,*6C
1509491029.84,50413,7.25,73228.5,-10.33,-10.89,-10.79,0,*6D
1509491031.13,50414,7.25,73224.0,-10.33,-10.79,-10.79,0,*65
1509491032.4,50415,7.25,73230.0,-10.33,-10.93,-10.79,0,*60
1509491033.64,50416,7.25,73228.0,-10.33,-10.89,-10.93,0,*6C
1509491034.88,50417,7.25,73230.0,-10.33,-10.93,-10.89,0,*6D
1509491036.15,50418,7.25,73220.3,-10.33,-10.79,-10.89,0,*66
1509491037.38,50419,7.25,73214.0,-10.31,-10.75,-10.85,0,*65
1509491038.61,50420,7.25,73168.8,-10.31,-10.75,-10.85,0,*6F
1509491039.88,50421,7.25,73184.0,-10.33,-10.79,-10.89,0,*6C
1509491041.14,50422,7.25,73216.5,-10.33,-10.79,-10.89,0,*6F
1509491042.41,50423,7.25,73228.0,-10.33,-10.79,-10.89,0,*6E
1509491043.67,50424,7.25,73188.0,-10.33,-10.89,-10.79,0,*69
1509491044.91,50425,7.25,73216.5,-10.33,-10.89,-10.89,0,*67
1509491046.2,50426,7.25,73214.8,-10.33,-10.79,-10.79,0,*64
1509491047.47,50427,7.25,73220.8,-10.33,-10.89,-10.79,0,*6A
1509491048.74,50428,7.25,73220.8,-10.33,-10.93,-10.79,0,*6E
1509491050.01,50429,7.25,73220.0,-10.33,-10.79,-10.89,0,*64
1509491051.25,50430,7.25,73216.3,-10.33,-10.89,-10.93,0,*68
1509491052.51,50431,7.25,73224.8,-10.33,-10.79,-10.89,0,*6D
1509491053.75,50432,7.25,73222.5,-10.33,-10.89,-10.89,0,*61
1509491054.99,50433,7.25,73224.8,-10.33,-10.89,-10.93,0,*6B
1509491056.23,50434,7.25,73232.8,-10.33,-10.89,-10.89,0,*67
1509491057.44,50435,7.25,73232.5,-10.31,-10.89,-10.89,0,*64
1509491058.68,50436,7.25,73232.3,-10.33,-10.89,-10.89,0,*65
1509491059.92,50437,7.25,73232.8,-10.33,-10.89,-10.89,0,*64
1509491061.16,50438,7.25,73228.0,-10.33,-10.89,-10.89,0,*6B
1509491062.42,50439,7.25,73234.8,-10.33,-10.89,-10.79,0,*65
1509491063.69,50440,7.25,73230.0,-10.33,-10.89,-10.79,0,*6B
1509491064.93,50441,7.25,73230.8,-10.33,-10.93,-10.89,0,*6E
1509491066.14,50442,7.25,73232.3,-10.31,-10.89,-10.85,0,*68
1509491067.38,50443,7.25,73234.8,-10.33,-10.89,-10.89,0,*67
1509491068.64,50444,7.25,73228.0,-10.33,-10.89,-10.79,0,*6F
1509491069.91,50445,7.25,73230.5,-10.33,-10.89,-10.79,0,*6E
1509491071.15,50446,7.25,73236.5,-10.33,-10.89,-10.89,0,*62
1509491072.41,50447,7.25,73230.8,-10.33,-10.79,-10.89,0,*6C
1509491073.65,50448,7.25,73228.3,-10.35,-10.79,-10.89,0,*65
1509491074.94,50449,7.25,73228.0,-10.33,-10.79,-10.79,0,*6D
1509491076.21,50450,7.25,73230.5,-10.33,-10.79,-10.89,0,*6A
1509491077.45,50451,7.25,73234.3,-10.33,-10.89,-10.89,0,*64
1509491078.74,50452,7.25,73232.8,-10.33,-10.79,-10.79,0,*67
1509491079.98,50453,7.25,73238.5,-10.33,-10.89,-10.89,0,*66
1509491081.22,50454,7.25,73234.8,-10.31,-10.85,-10.75,0,*6C
1509491082.42,50455,7.25,73240.3,-10.31,-10.85,-10.85,0,*62
1509491083.72,50456,7.25,73246.3,-10.33,-10.75,-10.79,0,*6F
1509491084.98,50457,7.25,73240.5,-10.33,-10.79,-10.89,0,*6D
1509491086.22,50458,7.25,73244.5,-10.33,-10.89,-10.89,0,*6D
1509491087.49,50459,7.25,73242.8,-10.33,-10.79,-10.89,0,*63
1509491088.78,50460,7.25,73236.5,-10.33,-10.79,-10.79,0,*66
1509491090.02,50461,7.25,73238.0,-10.33,-10.89,-10.89,0,*67
1509491091.22,50462,7.25,73238.3,-10.31,-10.89,-10.85,0,*6A
1509491092.46,50463,7.25,73238.8,-10.33,-10.89,-10.89,0,*65
1509491093.75,50464,7.25,73240.0,-10.33,-10.79,-10.79,0,*62
1509491095.02,50465,7.25,73248.3,-10.33,-10.93,-10.79,0,*67
1509491096.23,50466,7.25,73242.3,-10.31,-10.85,-10.85,0,*62
1509491097.5,50467,7.25,73240.3,-10.33,-10.93,-10.79,0,*65
1509491098.76,50468,7.25,73240.8,-10.33,-10.89,-10.79,0,*61
1509491100.03,50469,7.25,73246.0,-10.33,-10.89,-10.79,0,*60
1509491101.27,50470,7.25,73250.0,-10.31,-10.85,-10.75,0,*6A
1509491102.53,50471,7.25,73246.0,-10.33,-10.89,-10.79,0,*69
1509491103.77,50472,7.25,73240.0,-10.33,-10.89,-10.89,0,*65
1509491105.01,50473,7.25,73248.0,-10.33,-10.89,-10.89,0,*64
1509491106.24,50474,7.25,73254.5,-10.31,-10.75,-10.85,0,*6E
1509491107.54,50475,7.25,73260.8,-10.33,-10.79,-10.79,0,*62
1509491108.8,50476,7.25,73266.3,-10.33,-10.75,-10.89,0,*62
1509491110.01,50477,7.25,73266.0,-10.31,-10.85,-10.85,0,*62
1509491111.27,50478,7.25,73264.0,-10.33,-10.89,-10.79,0,*60
1509491112.51,50479,7.25,73260.0,-10.31,-10.85,-10.75,0,*63
1509491113.78,50480,7.25,73262.8,-10.33,-10.79,-10.89,0,*67
1509491115.04,50481,7.25,73260.5,-10.33,-10.79,-10.89,0,*66
1509491116.31,50482,7.25,73256.3,-10.33,-10.89,-10.79,0,*65
1509491117.58,50483,7.25,73250.0,-10.33,-10.89,-10.79,0,*64
1509491118.81,50484,7.25,73250.8,-10.31,-10.85,-10.79,0,*6D
1509491120.08,50485,7.25,73244.3,-10.33,-10.89,-10.79,0,*62
1509491121.35,50486,7.25,73254.5,-10.33,-10.89,-10.79,0,*61
1509491122.58,50487,7.25,73252.8,-10.33,-10.89,-10.85,0,*63
1509491123.82,50488,7.25,73246.0,-10.33,-10.89,-10.89,0,*60
1509491125.08,50489,7.25,73240.3,-10.33,-10.79,-10.89,0,*6E
1509491126.33,50490,7.25,73232.0,-10.33,-10.93,-10.89,0,*62
1509491127.59,50491,7.25,73244.5,-10.33,-10.89,-10.79,0,*67
1509491128.83,50492,7.25,73242.3,-10.31,-10.85,-10.79,0,*6A
1509491130.07,50493,7.25,73246.0,-10.33,-10.93,-10.93,0,*6A
1509491131.34,50494,7.25,73242.8,-10.33,-10.89,-10.79,0,*62
1509491132.58,50495,7.25,73240.3,-10.33,-10.89,-10.89,0,*6C
1509491133.84,50496,7.25,73250.5,-10.33,-10.89,-10.79,0,*60
1509491135.08,50497,7.25,73236.8,-10.33,-10.89,-10.89,0,*6E
1509491136.29,50498,7.25,73234.5,-10.31,-10.85,-10.85,0,*63
1509491137.53,50499,7.25,73240.5,-10.33,-10.89,-10.89,0,*60
1509491138.73,50500,7.25,73236.0,-10.31,-10.85,-10.85,0,*63
1509491139.97,50501,7.25,73236.0,-10.31,-10.85,-10.75,0,*6D
1509491141.26,50502,7.25,73234.5,-10.33,-10.79,-10.79,0,*63
1509491142.5,50503,7.25,73232.5,-10.33,-10.89,-10.89,0,*62
1509491143.77,50504,7.25,73238.3,-10.33,-10.89,-10.79,0,*6A
1509491145.01,50505,7.25,73236.3,-10.31,-10.85,-10.75,0,*69
1509491146.25,50506,7.25,73236.3,-10.33,-10.89,-10.89,0,*67
1509491147.45,50507,7.25,73238.3,-10.31,-10.85,-10.85,0,*64
1509491148.66,50508,7.25,73238.5,-10.31,-10.85,-10.85,0,*6B
1509491149.89,50509,7.25,73242.8,-10.33,-10.89,-10.85,0,*64
1509491151.15,50510,7.25,73240.3,-10.33,-10.89,-10.79,0,*6F
1509491152.42,50511,7.25,73240.0,-10.33,-10.89,-10.75,0,*62
1509491153.63,50512,7.25,73238.8,-10.31,-10.85,-10.85,0,*60
1509491154.87,50513,7.25,73242.0,-10.33,-10.89,-10.89,0,*63
1509491156.13,50514,7.25,73244.8,-10.33,-10.89,-10.79,0,*6B
1509491157.34,50515,7.25,73244.5,-10.31,-10.85,-10.93,0,*60
1509491158.58,50516,7.25,73238.5,-10.33,-10.89,-10.89,0,*66
1509491159.85,50517,7.25,73240.8,-10.33,-10.89,-10.79,0,*68
1509491161.09,50518,7.25,73242.8,-10.33,-10.89,-10.89,0,*68
1509491162.33,50519,7.25,73248.3,-10.33,-10.93,-10.89,0,*62
1509491163.54,50520,7.25,73246.0,-10.31,-10.89,-10.89,0,*61
1509491164.81,50521,7.25,73244.3,-10.33,-10.93,-10.79,0,*66
1509491166.05,50522,7.25,73246.0,-10.31,-10.89,-10.75,0,*60
1509491167.29,50523,7.25,73240.8,-10.33,-10.89,-10.89,0,*60
1509491168.49,50524,7.25,73246.3,-10.31,-10.85,-10.85,0,*65
1509491169.7,50525,7.25,73244.0,-10.31,-10.85,-10.85,0,*64
1509491170.97,50526,7.25,73242.3,-10.33,-10.89,-10.79,0,*6A
1509491172.18,50527,7.25,73238.0,-10.31,-10.85,-10.89,0,*6A
1509491173.38,50528,7.25,73242.3,-10.31,-10.85,-10.85,0,*69
1509491174.59,50529,7.25,73246.3,-10.31,-10.85,-10.89,0,*64
1509491175.8,50530,7.25,73240.3,-10.31,-10.85,-10.89,0,*6C
1509491177.04,50531,7.25,73238.8,-10.33,-10.89,-10.89,0,*63
1509491178.31,50532,7.25,73250.3,-10.33,-10.89,-10.79,0,*6F
1509491179.51,50533,7.25,73248.3,-10.31,-10.89,-10.85,0,*6F
1509491180.75,50534,7.25,73250.8,-10.33,-10.89,-10.89,0,*66
1509491181.96,50535,7.25,73254.0,-10.31,-10.89,-10.85,0,*69
1509491183.16,50536,7.25,73248.5,-10.31,-10.85,-10.85,0,*66
1509491184.37,50537,7.25,73240.0,-10.31,-10.85,-10.85,0,*67
1509491185.61,50538,7.25,73244.5,-10.33,-10.89,-10.93,0,*61
1509491186.81,50539,7.25,73238.5,-10.31,-10.85,-10.85,0,*69
1509491188.06,50540,7.25,73242.5,-10.33,-10.93,-10.89,0,*6E
1509491189.27,50541,7.25,73242.3,-10.31,-10.85,-10.89,0,*6A
1509491190.47,50542,7.25,73244.8,-10.31,-10.89,-10.85,0,*69
1509491191.71,50543,7.25,73246.0,-10.33,-10.89,-10.89,0,*66
1509491192.92,50544,7.25,73246.0,-10.31,-10.85,-10.85,0,*63
1509491194.16,50545,7.25,73242.3,-10.33,-10.89,-10.89,0,*60
1509491195.36,50546,7.25,73238.0,-10.31,-10.85,-10.85,0,*61
1509491196.57,50547,7.25,73242.0,-10.31,-10.85,-10.89,0,*6C
1509491197.81,50548,7.25,73232.0,-10.33,-10.93,-10.89,0,*66
1509491199.02,50549,7.25,73238.3,-10.31,-10.85,-10.85,0,*6E
1509491200.22,50550,7.25,73246.3,-10.31,-10.89,-10.85,0,*6A
1509491201.46,50551,7.25,73244.0,-10.33,-10.89,-10.89,0,*65
1509491202.71,50552,7.25,73238.0,-10.33,-10.93,-10.89,0,*6D
1509491203.98,50553,7.25,73226.3,-10.33,-10.93,-10.79,0,*63
1509491205.18,50554,7.25,73234.5,-10.31,-10.85,-10.85,0,*62
1509491206.42,50555,7.25,73232.8,-10.33,-10.89,-10.89,0,*61
1509491207.66,50556,7.25,73234.5,-10.33,-10.93,-10.89,0,*69
1509491208.9,50557,7.25,73232.0,-10.33,-10.89,-10.89,0,*63
1509491210.14,50558,7.25,73224.3,-10.33,-10.89,-10.89,0,*6C
1509491211.35,50559,7.25,73232.3,-10.31,-10.89,-10.93,0,*64
1509491212.59,50560,7.25,73230.0,-10.31,-10.75,-10.85,0,*6A
1509491213.85,50561,7.25,73228.8,-10.33,-10.89,-10.79,0,*69
1509491215.09,50562,7.25,73234.8,-10.33,-10.89,-10.89,0,*65
1509491216.29,50563,7.25,73220.3,-10.31,-10.85,-10.85,0,*66
1509491217.54,50564,7.25,73216.5,-10.33,-10.89,-10.93,0,*68
1509491218.74,50565,7.25,73224.0,-10.31,-10.85,-10.85,0,*60
1509491219.98,50566,7.25,73224.5,-10.31,-10.85,-10.75,0,*6C
1509491221.18,50567,7.25,73216.3,-10.31,-10.89,-10.85,0,*6E
1509491222.39,50568,7.25,73222.5,-10.31,-10.85,-10.85,0,*6D
1509491223.63,50569,7.25,73232.8,-10.33,-10.93,-10.89,0,*65
1509491224.89,50570,7.25,73230.8,-10.33,-10.79,-10.85,0,*65
1509491226.13,50571,7.25,73236.5,-10.33,-10.89,-10.93,0,*6C
1509491227.37,50572,7.25,73242.5,-10.33,-10.93,-10.89,0,*6F
1509491228.58,50573,7.25,73238.5,-10.31,-10.85,-10.85,0,*67
1509491229.78,50574,7.25,73246.8,-10.31,-10.85,-10.85,0,*60
1509491231.02,50575,7.25,73244.3,-10.31,-10.75,-10.89,0,*62
1509491232.27,50576,7.25,73240.5,-10.33,-10.93,-10.93,0,*60
1509491233.5,50577,7.25,73240.3,-10.33,-10.89,-10.89,0,*61
1509491234.72,50578,7.25,73232.5,-10.31,-10.85,-10.89,0,*60
1509491235.92,50579,7.25,73226.8,-10.31,-10.85,-10.85,0,*6D
1509491237.13,50580,7.25,73228.3,-10.31,-10.89,-10.85,0,*67
1509491238.33,50581,7.25,73232.0,-10.31,-10.89,-10.85,0,*66
1509491239.57,50582,7.25,73226.8,-10.33,-10.89,-10.89,0,*6B
1509491240.81,50583,7.25,73226.0,-10.33,-10.89,-10.89,0,*6A
1509491242.04,50584,7.25,73226.3,-10.33,-10.89,-10.85,0,*61
1509491243.28,50585,7.25,73228.3,-10.33,-10.89,-10.89,0,*6C
1509491244.49,50586,7.25,73228.3,-10.31,-10.85,-10.85,0,*6D
1509491245.73,50587,7.25,73228.8,-10.33,-10.89,-10.93,0,*65
1509491246.93,50588,7.25,73236.5,-10.31,-10.85,-10.85,0,*63
1509491248.2,50589,7.25,73238.0,-10.33,-10.79,-10.89,0,*6F
1509491249.46,50590,7.25,73240.3,-10.33,-10.89,-10.79,0,*67
1509491250.7,50591,7.25,73240.8,-10.31,-10.89,-10.79,0,*64
1509491251.91,50592,7.25,73240.0,-10.31,-10.89,-10.89,0,*68
1509491253.15,50593,7.25,73236.3,-10.31,-10.85,-10.79,0,*6A
1509491254.39,50594,7.25,73244.5,-10.31,-10.85,-10.71,0,*65
1509491255.62,50595,7.25,73240.5,-10.31,-10.85,-10.75,0,*60
1509491256.87,50596,7.25,73242.3,-10.33,-10.93,-10.89,0,*65
1509491258.13,50597,7.25,73238.3,-10.31,-10.75,-10.71,0,*69
1509491259.37,50598,7.25,73250.0,-10.33,-10.89,-10.89,0,*60
1509491260.57,50599,7.25,73246.3,-10.31,-10.85,-10.85,0,*63
1509491261.78,50600,7.25,73248.8,-10.31,-10.85,-10.85,0,*60
1509491262.99,50601,7.25,73250.5,-10.31,-10.85,-10.93,0,*66
1509491264.26,50602,7.25,73250.0,-10.33,-10.89,-10.79,0,*6F
1509491265.46,50603,7.25,73248.0,-10.31,-10.85,-10.85,0,*63
1509491266.7,50604,7.25,73246.5,-10.33,-10.89,-10.89,0,*66
1509491267.94,50605,7.25,73244.5,-10.31,-10.75,-10.89,0,*66
1509491269.21,50606,7.25,73248.5,-10.31,-10.75,-10.75,0,*66
1509491270.41,50607,7.25,73246.3,-10.31,-10.85,-10.85,0,*67
1509491271.62,50608,7.25,73246.8,-10.31,-10.85,-10.85,0,*68
1509491272.85,50609,7.25,73240.0,-10.33,-10.89,-10.85,0,*67
1509491274.11,50610,7.25,73236.5,-10.31,-10.75,-10.75,0,*61
1509491275.35,50611,7.25,73238.8,-10.31,-10.89,-10.75,0,*63
1509491276.56,50612,7.25,73246.5,-10.31,-10.85,-10.85,0,*63
1509491277.8,50613,7.25,73244.8,-10.31,-10.85,-10.75,0,*6D
1509491279.04,50614,7.25,73240.0,-10.31,-10.85,-10.75,0,*6A
1509491280.24,50615,7.25,73238.8,-10.31,-10.85,-10.85,0,*64
1509491281.48,50616,7.25,73236.5,-10.33,-10.89,-10.89,0,*65
1509491282.72,50617,7.25,73234.0,-10.31,-10.85,-10.75,0,*69
1509491283.95,50618,7.25,73234.8,-10.31,-10.75,-10.85,0,*66
1509491285.16,50619,7.25,73236.0,-10.31,-10.85,-10.89,0,*64
1509491286.43,50620,7.25,73240.3,-10.33,-10.89,-10.79,0,*6F
1509491287.69,50621,7.25,73238.0,-10.33,-10.89,-10.79,0,*6E
1509491288.93,50622,7.25,73238.3,-10.31,-10.85,-10.75,0,*6F
1509491290.14,50623,7.25,73238.5,-10.31,-10.85,-10.89,0,*6D
1509491291.41,50624,7.25,73240.8,-10.33,-10.89,-10.75,0,*67
1509491292.65,50625,7.25,73236.3,-10.33,-10.89,-10.89,0,*65
1509491293.88,50626,7.25,73238.8,-10.31,-10.75,-10.85,0,*6B
1509491295.12,50627,7.25,73240.3,-10.31,-10.75,-10.85,0,*6A
1509491296.32,50628,7.25,73240.5,-10.31,-10.85,-10.85,0,*6A